LSI52Y LFPG-LIMC

Flight info

Callsign LSI52Y
Flight time 2h 5m
Altitude 33000
Route OKASI DCT OKEKO DCT MOU DCT MADIV DCT MOKIP DCT TUFTA DCT GEVEA/N0493F290 DCT MOBLO DCT LURAG DCT TOP M135 ASTIG
Aircraft B77L/H-SDE1E2E3FGHIJ2J3J4J5M1RWXY/LB1D1

Departure

Time 2026-05-05 19:52
Airport Charles de Gaulle International Airport (LFPG)

Arrival

Time 2026-05-05 21:58
Airport Milan Malpensa International Airport (LIMC)
Time Latitude Longitude Altitude Speed Heading
2026-05-05 19:36 48.99985 2.53800 359 ft 0 kts 354°
2026-05-05 19:44 48.99964 2.53803 359 ft 4 kts 354°
2026-05-05 19:45 48.99933 2.53807 359 ft 6 kts 357°
2026-05-05 19:45 48.99910 2.53807 359 ft 2 kts 15°
2026-05-05 19:45 48.99900 2.53800 366 ft 2 kts 62°
2026-05-05 19:45 48.99896 2.53784 359 ft 2 kts 82°
2026-05-05 19:46 48.99895 2.53772 359 ft 0 kts 86°
2026-05-05 19:48 48.99899 2.53836 359 ft 11 kts 85°
2026-05-05 19:48 48.99905 2.53950 362 ft 7 kts 85°
2026-05-05 19:48 48.99905 2.53957 361 ft 0 kts 85°
2026-05-05 19:48 48.99906 2.53977 361 ft 6 kts 85°
2026-05-05 19:49 48.99911 2.54057 364 ft 9 kts 84°
2026-05-05 19:49 48.99915 2.54125 365 ft 9 kts 84°
2026-05-05 19:49 48.99875 2.54244 363 ft 12 kts 147°
2026-05-05 19:49 48.99839 2.54357 359 ft 14 kts 91°
2026-05-05 19:50 48.99845 2.54509 365 ft 15 kts 85°
2026-05-05 19:50 48.99854 2.54664 362 ft 15 kts 85°
2026-05-05 19:50 48.99838 2.54793 366 ft 12 kts 131°
2026-05-05 19:50 48.99766 2.54858 366 ft 12 kts 140°
2026-05-05 19:51 48.99717 2.54961 368 ft 12 kts 120°
2026-05-05 19:51 48.99678 2.55077 366 ft 12 kts 116°
2026-05-05 19:51 48.99642 2.55192 367 ft 12 kts 115°
2026-05-05 19:51 48.99603 2.55307 364 ft 13 kts 121°
2026-05-05 19:52 48.99579 2.55417 362 ft 14 kts 90°
2026-05-05 19:52 48.99599 2.55824 364 ft 80 kts 85°
2026-05-05 19:52 48.99678 2.57190 361 ft 180 kts 84°
2026-05-05 19:52 48.99772 2.59229 1132 ft 202 kts 83°
2026-05-05 19:53 48.99881 2.61450 2277 ft 215 kts 81°
2026-05-05 19:53 49.00010 2.63831 3057 ft 232 kts 82°
2026-05-05 19:53 49.00103 2.65491 3535 ft 242 kts 83°
2026-05-05 19:53 49.00250 2.68125 4316 ft 255 kts 83°
2026-05-05 19:54 49.00404 2.70888 5149 ft 266 kts 84°
2026-05-05 19:54 49.00597 2.74652 6461 ft 272 kts 85°
2026-05-05 19:54 49.00738 2.77548 7410 ft 275 kts 88°
2026-05-05 19:54 49.00688 2.79520 7954 ft 280 kts 98°
2026-05-05 19:55 49.00368 2.82446 8870 ft 284 kts 102°
2026-05-05 19:55 48.99996 2.85426 9856 ft 287 kts 102°
2026-05-05 19:55 48.99641 2.88469 10544 ft 300 kts 102°
2026-05-05 19:55 48.99281 2.91725 10774 ft 329 kts 100°
2026-05-05 19:56 48.98895 2.95317 11005 ft 358 kts 100°
2026-05-05 19:56 48.98228 2.99031 11210 ft 372 kts 119°
2026-05-05 19:56 48.96560 3.02095 11943 ft 379 kts 143°
2026-05-05 19:56 48.94246 3.04020 12820 ft 382 kts 163°
2026-05-05 19:57 48.91657 3.04695 13754 ft 383 kts 182°
2026-05-05 19:57 48.89030 3.04074 14593 ft 385 kts 198°
2026-05-05 19:57 48.86621 3.02276 15462 ft 387 kts 213°
2026-05-05 19:57 48.84402 2.99912 16310 ft 391 kts 216°
2026-05-05 19:58 48.82195 2.97411 17098 ft 397 kts 217°
2026-05-05 19:58 48.79977 2.94874 17926 ft 401 kts 216°
2026-05-05 19:58 48.77725 2.92328 18651 ft 407 kts 216°
2026-05-05 19:58 48.75460 2.89802 18835 ft 409 kts 216°
2026-05-05 19:59 48.73145 2.87255 19247 ft 416 kts 215°
2026-05-05 19:59 48.70756 2.84648 19689 ft 427 kts 215°
2026-05-05 19:59 48.68319 2.82002 20242 ft 434 kts 214°
2026-05-05 19:59 48.65846 2.79323 20874 ft 439 kts 214°
2026-05-05 20:00 48.63338 2.76610 21523 ft 444 kts 214°
2026-05-05 20:00 48.60811 2.73880 22141 ft 449 kts 214°
2026-05-05 20:00 48.58285 2.71151 22731 ft 454 kts 214°
2026-05-05 20:00 48.55696 2.68358 23306 ft 460 kts 214°
2026-05-05 20:01 48.53076 2.65537 23828 ft 464 kts 214°
2026-05-05 20:01 48.50388 2.62842 24242 ft 464 kts 206°
2026-05-05 20:01 48.47316 2.61271 24576 ft 467 kts 187°
2026-05-05 20:01 48.44131 2.61214 25106 ft 460 kts 173°
2026-05-05 20:02 48.40918 2.61657 25496 ft 467 kts 174°
2026-05-05 20:02 48.37643 2.61957 25969 ft 471 kts 176°
2026-05-05 20:02 48.34361 2.62181 26495 ft 473 kts 176°
2026-05-05 20:02 48.31053 2.62408 27023 ft 476 kts 175°
2026-05-05 20:03 48.27760 2.62983 27457 ft 478 kts 168°
2026-05-05 20:03 48.24514 2.64173 27874 ft 481 kts 162°
2026-05-05 20:03 48.21387 2.65821 28274 ft 483 kts 156°
2026-05-05 20:03 48.18308 2.67880 28762 ft 484 kts 155°
2026-05-05 20:04 48.15239 2.69964 29416 ft 481 kts 155°
2026-05-05 20:04 48.12190 2.72029 30068 ft 478 kts 155°
2026-05-05 20:04 48.09192 2.74046 30555 ft 477 kts 155°
2026-05-05 20:04 48.06152 2.76076 31004 ft 477 kts 156°
2026-05-05 20:05 48.03113 2.78094 31454 ft 477 kts 156°
2026-05-05 20:05 48.00077 2.80101 31905 ft 477 kts 156°
2026-05-05 20:05 47.97043 2.82102 32366 ft 476 kts 156°
2026-05-05 20:05 47.94050 2.84071 32839 ft 475 kts 156°
2026-05-05 20:06 47.91012 2.86068 32819 ft 479 kts 156°
2026-05-05 20:06 47.84921 2.90064 32839 ft 474 kts 156°
2026-05-05 20:07 47.78878 2.94020 32848 ft 472 kts 156°
2026-05-05 20:07 47.72902 2.97924 32853 ft 471 kts 157°
2026-05-05 20:08 47.66885 3.01844 32852 ft 471 kts 157°
2026-05-05 20:08 47.60900 3.05732 32857 ft 471 kts 157°
2026-05-05 20:09 47.54877 3.09636 32862 ft 471 kts 157°
2026-05-05 20:09 47.48891 3.13507 32858 ft 472 kts 157°
2026-05-05 20:10 47.42863 3.17395 32858 ft 473 kts 157°
2026-05-05 20:10 47.36802 3.21294 32876 ft 478 kts 157°
2026-05-05 20:11 47.30596 3.25276 32872 ft 489 kts 158°
2026-05-05 20:11 47.24375 3.29258 32859 ft 490 kts 158°
2026-05-05 20:12 47.18122 3.33251 32861 ft 487 kts 158°
2026-05-05 20:12 47.11933 3.37193 32870 ft 486 kts 158°
2026-05-05 20:13 47.05733 3.41131 32871 ft 485 kts 158°
2026-05-05 20:13 46.99541 3.45054 32871 ft 484 kts 158°
2026-05-05 20:14 46.93356 3.48962 32879 ft 484 kts 158°
2026-05-05 20:14 46.87216 3.52874 32869 ft 481 kts 155°
2026-05-05 20:14 46.84432 3.55613 32881 ft 487 kts 139°
2026-05-05 20:15 46.82227 3.59406 32890 ft 492 kts 126°
2026-05-05 20:15 46.80628 3.63803 32882 ft 498 kts 114°
2026-05-05 20:15 46.79498 3.68591 32893 ft 498 kts 111°
2026-05-05 20:16 46.77300 3.78209 32881 ft 501 kts 111°
2026-05-05 20:16 46.75036 3.87828 32886 ft 503 kts 111°
2026-05-05 20:17 46.72710 3.97481 32886 ft 504 kts 112°
2026-05-05 20:17 46.70361 4.07138 32868 ft 504 kts 112°
2026-05-05 20:18 46.68029 4.16685 32878 ft 504 kts 112°
2026-05-05 20:18 46.65672 4.26306 32896 ft 503 kts 112°
2026-05-05 20:19 46.63325 4.35850 32904 ft 503 kts 112°
2026-05-05 20:19 46.60957 4.45436 32884 ft 502 kts 113°
2026-05-05 20:20 46.58583 4.55007 32884 ft 502 kts 113°
2026-05-05 20:20 46.56198 4.64577 32886 ft 502 kts 113°
2026-05-05 20:21 46.53821 4.74081 32887 ft 503 kts 113°
2026-05-05 20:21 46.51419 4.83640 32889 ft 503 kts 113°
2026-05-05 20:22 46.49023 4.93139 32880 ft 504 kts 114°
2026-05-05 20:22 46.46599 5.02716 32889 ft 504 kts 114°
2026-05-05 20:23 46.44288 5.12303 32887 ft 508 kts 109°
2026-05-05 20:23 46.42474 5.22260 32891 ft 509 kts 108°
2026-05-05 20:24 46.40668 5.32150 32883 ft 510 kts 109°
2026-05-05 20:24 46.38806 5.42077 32891 ft 511 kts 109°
2026-05-05 20:25 46.36957 5.51970 32897 ft 512 kts 109°
2026-05-05 20:25 46.35103 5.61948 32875 ft 512 kts 109°
2026-05-05 20:26 46.33255 5.71835 32894 ft 513 kts 109°
2026-05-05 20:26 46.31371 5.81833 32904 ft 514 kts 109°
2026-05-05 20:27 46.29481 5.91814 32937 ft 514 kts 109°
2026-05-05 20:27 46.27594 6.01739 32872 ft 515 kts 110°
2026-05-05 20:27 46.26596 6.06680 32373 ft 516 kts 114°
2026-05-05 20:28 46.25169 6.11302 31787 ft 502 kts 124°
2026-05-05 20:28 46.23329 6.15412 31233 ft 488 kts 132°
2026-05-05 20:28 46.21218 6.19032 30710 ft 474 kts 140°
2026-05-05 20:28 46.18811 6.22225 30172 ft 465 kts 143°
2026-05-05 20:29 46.16424 6.25331 29585 ft 459 kts 143°
2026-05-05 20:29 46.14078 6.28415 29084 ft 456 kts 143°
2026-05-05 20:29 46.11730 6.31522 28942 ft 459 kts 142°
2026-05-05 20:30 46.07096 6.37694 28910 ft 459 kts 142°
2026-05-05 20:30 46.04708 6.40870 28943 ft 472 kts 142°
2026-05-05 20:30 46.02256 6.44129 28942 ft 484 kts 142°
2026-05-05 20:31 45.97233 6.50809 28933 ft 497 kts 142°
2026-05-05 20:31 45.92112 6.57613 28930 ft 501 kts 143°
2026-05-05 20:32 45.87014 6.64363 28943 ft 501 kts 143°
2026-05-05 20:32 45.81868 6.71157 28919 ft 501 kts 143°
2026-05-05 20:33 45.76743 6.77867 28918 ft 502 kts 143°
2026-05-05 20:33 45.71565 6.84598 28937 ft 499 kts 143°
2026-05-05 20:34 45.66465 6.91219 28958 ft 496 kts 143°
2026-05-05 20:34 45.61350 6.97850 28963 ft 496 kts 143°
2026-05-05 20:35 45.56262 7.04430 28953 ft 494 kts 143°
2026-05-05 20:35 45.51153 7.11025 28975 ft 495 kts 143°
2026-05-05 20:36 45.46030 7.17668 29001 ft 497 kts 143°
2026-05-05 20:36 45.40930 7.24284 28965 ft 498 kts 143°
2026-05-05 20:37 45.35780 7.30940 28988 ft 498 kts 143°
2026-05-05 20:37 45.34083 7.33130 28813 ft 497 kts 144°
2026-05-05 20:37 45.30683 7.37505 27799 ft 494 kts 144°
2026-05-05 20:37 45.28156 7.40764 27109 ft 486 kts 143°
2026-05-05 20:38 45.25660 7.43978 26404 ft 479 kts 143°
2026-05-05 20:38 45.23206 7.47135 25729 ft 473 kts 143°
2026-05-05 20:38 45.20802 7.50219 25105 ft 468 kts 143°
2026-05-05 20:38 45.18389 7.53299 24458 ft 463 kts 143°
2026-05-05 20:39 45.15996 7.56351 23823 ft 459 kts 142°
2026-05-05 20:39 45.13625 7.59376 23128 ft 456 kts 142°
2026-05-05 20:39 45.11303 7.62337 22380 ft 452 kts 142°
2026-05-05 20:39 45.08968 7.65312 21656 ft 449 kts 142°
2026-05-05 20:40 45.06658 7.68253 20943 ft 446 kts 143°
2026-05-05 20:40 45.04357 7.71178 20252 ft 443 kts 143°
2026-05-05 20:40 45.02074 7.74076 19593 ft 439 kts 143°
2026-05-05 20:40 44.99800 7.76963 18941 ft 435 kts 143°
2026-05-05 20:41 44.98310 7.78852 18507 ft 433 kts 142°
2026-05-05 20:41 44.95378 7.82618 17575 ft 423 kts 139°
2026-05-05 20:41 44.93678 7.86037 16833 ft 430 kts 118°
2026-05-05 20:41 44.92803 7.90063 16256 ft 426 kts 102°
2026-05-05 20:42 44.92659 7.92798 16104 ft 417 kts 92°
2026-05-05 20:42 44.92820 7.96827 15975 ft 401 kts 89°
2026-05-05 20:42 44.93017 8.00640 15958 ft 385 kts 89°
2026-05-05 20:42 44.93202 8.04344 15937 ft 369 kts 89°
2026-05-05 20:43 44.93365 8.07882 15964 ft 352 kts 90°
2026-05-05 20:43 44.93512 8.11272 15956 ft 338 kts 90°
2026-05-05 20:43 44.93644 8.14549 15966 ft 339 kts 90°
2026-05-05 20:43 44.93774 8.17872 15818 ft 337 kts 90°
2026-05-05 20:44 44.93902 8.21180 15500 ft 334 kts 90°
2026-05-05 20:44 44.94027 8.24431 15197 ft 329 kts 90°
2026-05-05 20:44 44.94150 8.27625 15032 ft 319 kts 90°
2026-05-05 20:44 44.94371 8.30620 14958 ft 306 kts 76°
2026-05-05 20:45 44.96935 8.35235 14976 ft 307 kts 26°
2026-05-05 20:45 44.98927 8.36211 14966 ft 301 kts
2026-05-05 20:45 45.00975 8.36059 14970 ft 291 kts 339°
2026-05-05 20:46 45.02759 8.34870 14967 ft 280 kts 316°
2026-05-05 20:46 45.04062 8.32910 14966 ft 269 kts 296°
2026-05-05 20:46 45.04892 8.30613 14980 ft 264 kts 284°
2026-05-05 20:46 45.05237 8.28110 14972 ft 255 kts 266°
2026-05-05 20:47 45.05172 8.25608 14984 ft 255 kts 262°
2026-05-05 20:47 45.05054 8.23094 14994 ft 256 kts 263°
2026-05-05 20:47 45.04949 8.20591 14980 ft 258 kts 263°
2026-05-05 20:47 45.04853 8.18042 14987 ft 260 kts 263°
2026-05-05 20:48 45.04752 8.15488 14981 ft 258 kts 259°
2026-05-05 20:48 45.04204 8.13127 14978 ft 251 kts 237°
2026-05-05 20:48 45.03115 8.11198 14978 ft 252 kts 223°
2026-05-05 20:48 45.01713 8.09761 14973 ft 253 kts 208°
2026-05-05 20:49 45.00033 8.08971 14968 ft 257 kts 191°
2026-05-05 20:49 44.98231 8.09005 14977 ft 262 kts 172°
2026-05-05 20:49 44.96501 8.09924 14974 ft 271 kts 153°
2026-05-05 20:49 44.95067 8.11700 14971 ft 280 kts 132°
2026-05-05 20:50 44.94093 8.14079 14979 ft 287 kts 116°
2026-05-05 20:50 44.93720 8.16874 14966 ft 293 kts 91°
2026-05-05 20:50 44.93852 8.19744 14976 ft 294 kts 90°
2026-05-05 20:50 44.93975 8.22651 14979 ft 295 kts 91°
2026-05-05 20:51 44.94078 8.25529 14985 ft 297 kts 91°
2026-05-05 20:51 44.94177 8.28463 14989 ft 300 kts 91°
2026-05-05 20:51 44.94529 8.31359 14955 ft 302 kts 68°
2026-05-05 20:51 44.95730 8.33762 14974 ft 302 kts 39°
2026-05-05 20:52 44.97541 8.35221 14987 ft 299 kts 12°
2026-05-05 20:52 44.99576 8.35501 14981 ft 292 kts 347°
2026-05-05 20:52 45.01461 8.34610 14974 ft 282 kts 322°
2026-05-05 20:52 45.02856 8.32818 14977 ft 272 kts 298°
2026-05-05 20:53 45.03713 8.30472 14987 ft 266 kts 283°
2026-05-05 20:53 45.04012 8.27936 14986 ft 260 kts 266°
2026-05-05 20:53 45.03945 8.25368 14981 ft 261 kts 262°
2026-05-05 20:53 45.03821 8.22792 14993 ft 263 kts 262°
2026-05-05 20:54 45.03705 8.20211 14982 ft 261 kts 263°
2026-05-05 20:54 45.03608 8.17687 14970 ft 257 kts 263°
2026-05-05 20:54 45.03518 8.15170 14975 ft 255 kts 263°
2026-05-05 20:54 45.03430 8.12655 14981 ft 256 kts 263°
2026-05-05 20:55 45.03317 8.10147 14973 ft 252 kts 256°
2026-05-05 20:55 45.02678 8.07917 14978 ft 246 kts 233°
2026-05-05 20:55 45.01499 8.06141 14992 ft 251 kts 217°
2026-05-05 20:55 44.99958 8.04941 14980 ft 256 kts 199°
2026-05-05 20:56 44.98189 8.04583 14978 ft 260 kts 180°
2026-05-05 20:56 44.96424 8.05200 14971 ft 266 kts 158°
2026-05-05 20:56 44.94940 8.06746 14971 ft 274 kts 136°
2026-05-05 20:56 44.93922 8.09059 14979 ft 282 kts 116°
2026-05-05 20:57 44.93557 8.11809 14967 ft 289 kts 91°
2026-05-05 20:57 44.93674 8.14694 14991 ft 298 kts 90°
2026-05-05 20:57 44.93798 8.17647 14996 ft 301 kts 90°
2026-05-05 20:57 44.93913 8.20572 14989 ft 302 kts 91°
2026-05-05 20:58 44.94019 8.23549 14988 ft 303 kts 91°
2026-05-05 20:58 44.94118 8.26527 14982 ft 303 kts 91°
2026-05-05 20:58 44.94226 8.29497 14971 ft 301 kts 87°
2026-05-05 20:58 44.94841 8.32276 14960 ft 303 kts 58°
2026-05-05 20:59 44.96278 8.34430 14976 ft 304 kts 31°
2026-05-05 20:59 44.98220 8.35577 14993 ft 305 kts
2026-05-05 20:59 45.00316 8.35538 14973 ft 298 kts 340°
2026-05-05 20:59 45.02145 8.34329 14970 ft 286 kts 315°
2026-05-05 21:00 45.03411 8.32266 14980 ft 274 kts 293°
2026-05-05 21:00 45.04113 8.29832 14997 ft 268 kts 277°
2026-05-05 21:00 45.04263 8.27244 14997 ft 262 kts 264°
2026-05-05 21:00 45.04168 8.24665 14992 ft 263 kts 262°
2026-05-05 21:01 45.04043 8.22083 14987 ft 264 kts 262°
2026-05-05 21:01 45.03932 8.19481 14985 ft 265 kts 263°
2026-05-05 21:01 45.03833 8.16875 14983 ft 266 kts 263°
2026-05-05 21:01 45.03742 8.14284 14977 ft 266 kts 263°
2026-05-05 21:02 45.03652 8.11667 14971 ft 265 kts 263°
2026-05-05 21:02 45.03436 8.09112 14962 ft 256 kts 248°
2026-05-05 21:02 45.02587 8.06982 14973 ft 251 kts 228°
2026-05-05 21:02 45.01284 8.05361 14978 ft 250 kts 212°
2026-05-05 21:03 44.99676 8.04389 14987 ft 255 kts 194°
2026-05-05 21:03 44.97881 8.04260 14971 ft 264 kts 175°
2026-05-05 21:03 44.96130 8.05082 14976 ft 274 kts 154°
2026-05-05 21:03 44.94667 8.06872 14968 ft 285 kts 131°
2026-05-05 21:04 44.93747 8.09387 14982 ft 294 kts 110°
2026-05-05 21:04 44.93564 8.12274 14977 ft 296 kts 90°
2026-05-05 21:04 44.93694 8.15197 14978 ft 298 kts 90°
2026-05-05 21:04 44.93816 8.18095 14996 ft 300 kts 90°
2026-05-05 21:05 44.93931 8.21058 14994 ft 302 kts 91°
2026-05-05 21:05 44.94035 8.24037 14995 ft 304 kts 91°
2026-05-05 21:05 44.94135 8.27031 14987 ft 306 kts 91°
2026-05-05 21:05 44.94272 8.30036 14966 ft 305 kts 82°
2026-05-05 21:06 44.95060 8.32780 14969 ft 308 kts 53°
2026-05-05 21:06 44.96640 8.34787 14978 ft 306 kts 26°
2026-05-05 21:06 44.98632 8.35683 14983 ft 299 kts
2026-05-05 21:06 45.00661 8.35382 14970 ft 290 kts 335°
2026-05-05 21:07 45.02373 8.34003 14977 ft 279 kts 311°
2026-05-05 21:07 45.03521 8.31907 14985 ft 270 kts 291°
2026-05-05 21:07 45.04178 8.29439 14984 ft 265 kts 274°
2026-05-05 21:07 45.04263 8.26856 14992 ft 262 kts 264°
2026-05-05 21:08 45.04156 8.24279 14986 ft 264 kts 262°
2026-05-05 21:08 45.04031 8.21705 14983 ft 266 kts 263°
2026-05-05 21:08 45.03920 8.19085 14983 ft 266 kts 263°
2026-05-05 21:08 45.03824 8.16478 14972 ft 262 kts 263°
2026-05-05 21:09 45.03735 8.13914 14969 ft 259 kts 263°
2026-05-05 21:09 45.03648 8.11390 14981 ft 259 kts 263°
2026-05-05 21:09 45.03392 8.08911 14961 ft 252 kts 245°
2026-05-05 21:09 45.02479 8.06818 14987 ft 253 kts 227°
2026-05-05 21:10 45.01119 8.05209 14986 ft 258 kts 211°
2026-05-05 21:10 44.99444 8.04294 14973 ft 261 kts 192°
2026-05-05 21:10 44.97621 8.04292 14961 ft 266 kts 172°
2026-05-05 21:10 44.95893 8.05283 14968 ft 273 kts 150°
2026-05-05 21:11 44.94538 8.07161 14972 ft 282 kts 128°
2026-05-05 21:11 44.93691 8.09699 14972 ft 291 kts 108°
2026-05-05 21:11 44.93579 8.12571 14985 ft 296 kts 90°
2026-05-05 21:11 44.93708 8.15514 14981 ft 304 kts 90°
2026-05-05 21:12 44.93831 8.18468 14992 ft 305 kts 90°
2026-05-05 21:12 44.93946 8.21453 14982 ft 303 kts 91°
2026-05-05 21:12 44.94049 8.24425 14972 ft 302 kts 91°
2026-05-05 21:12 44.94147 8.27391 14971 ft 301 kts 91°
2026-05-05 21:13 44.94311 8.30327 14957 ft 299 kts 79°
2026-05-05 21:13 44.95172 8.32936 14975 ft 303 kts 50°
2026-05-05 21:13 44.96793 8.34861 14991 ft 308 kts 25°
2026-05-05 21:13 44.98803 8.35705 14979 ft 305 kts 359°
2026-05-05 21:14 45.00859 8.35322 14975 ft 294 kts 333°
2026-05-05 21:14 45.02543 8.33829 14973 ft 281 kts 308°
2026-05-05 21:14 45.03637 8.31605 14988 ft 272 kts 289°
2026-05-05 21:14 45.04200 8.29101 14982 ft 265 kts 271°
2026-05-05 21:15 45.04236 8.26516 14983 ft 262 kts 263°
2026-05-05 21:15 45.04123 8.23938 14984 ft 263 kts 262°
2026-05-05 21:15 45.04000 8.21382 14983 ft 264 kts 263°
2026-05-05 21:15 45.03892 8.18774 14983 ft 265 kts 263°
2026-05-05 21:16 45.03796 8.16168 14976 ft 265 kts 263°
2026-05-05 21:16 45.03706 8.13588 14977 ft 265 kts 263°
2026-05-05 21:16 45.03617 8.10984 14982 ft 264 kts 263°
2026-05-05 21:16 45.03258 8.08496 14963 ft 254 kts 242°
2026-05-05 21:17 45.02266 8.06514 14979 ft 250 kts 224°
2026-05-05 21:17 45.00873 8.05051 14981 ft 251 kts 208°
2026-05-05 21:17 44.99205 8.04289 14977 ft 255 kts 189°
2026-05-05 21:17 44.97418 8.04415 14966 ft 261 kts 169°
2026-05-05 21:18 44.95756 8.05475 14973 ft 271 kts 148°
2026-05-05 21:18 44.94433 8.07436 14972 ft 284 kts 127°
2026-05-05 21:18 44.93617 8.10047 14748 ft 300 kts 104°
2026-05-05 21:18 44.93561 8.13038 14342 ft 307 kts 89°
2026-05-05 21:19 44.93710 8.16055 13954 ft 308 kts 89°
2026-05-05 21:19 44.93848 8.19066 13529 ft 307 kts 89°
2026-05-05 21:19 44.93965 8.22015 13110 ft 296 kts 90°
2026-05-05 21:19 44.94065 8.24850 12817 ft 284 kts 90°
2026-05-05 21:20 44.94157 8.27634 12563 ft 282 kts 90°
2026-05-05 21:20 44.94331 8.30375 12289 ft 280 kts 76°
2026-05-05 21:20 44.95243 8.32786 12056 ft 280 kts 45°
2026-05-05 21:20 44.96816 8.34346 12039 ft 282 kts 20°
2026-05-05 21:21 44.98733 8.34879 12001 ft 283 kts 354°
2026-05-05 21:21 45.00610 8.34231 11980 ft 276 kts 328°
2026-05-05 21:21 45.02054 8.32540 11971 ft 267 kts 301°
2026-05-05 21:21 45.02871 8.30221 11982 ft 260 kts 282°
2026-05-05 21:22 45.03089 8.27755 11983 ft 254 kts 266°
2026-05-05 21:22 45.03006 8.25248 11980 ft 255 kts 264°
2026-05-05 21:22 45.02894 8.22738 11977 ft 256 kts 264°
2026-05-05 21:22 45.02793 8.20223 11978 ft 257 kts 264°
2026-05-05 21:23 45.02699 8.17688 11979 ft 258 kts 264°
2026-05-05 21:23 45.02366 8.15286 11966 ft 250 kts 242°
2026-05-05 21:23 45.01340 8.13329 11977 ft 248 kts 221°
2026-05-05 21:23 44.99887 8.12022 11977 ft 249 kts 202°
2026-05-05 21:24 44.98182 8.11545 11973 ft 253 kts 180°
2026-05-05 21:24 44.96448 8.12073 11976 ft 260 kts 158°
2026-05-05 21:24 44.95006 8.13593 11967 ft 268 kts 131°
2026-05-05 21:24 44.94155 8.15949 11979 ft 275 kts 106°
2026-05-05 21:25 44.94082 8.18665 11974 ft 282 kts 79°
2026-05-05 21:25 44.94865 8.21273 12012 ft 303 kts 56°
2026-05-05 21:25 44.95782 8.22822 11984 ft 314 kts 45°
2026-05-05 21:25 44.97986 8.25542 11974 ft 317 kts 38°
2026-05-05 21:26 44.99130 8.26833 11971 ft 317 kts 38°
2026-05-05 21:26 45.01425 8.29413 11972 ft 317 kts 38°
2026-05-05 21:26 45.03141 8.31372 11973 ft 317 kts 39°
2026-05-05 21:26 45.04271 8.32678 11972 ft 316 kts 39°
2026-05-05 21:27 45.05970 8.34663 11978 ft 316 kts 39°
2026-05-05 21:27 45.07663 8.36657 11971 ft 316 kts 39°
2026-05-05 21:27 45.09357 8.38663 11979 ft 316 kts 40°
2026-05-05 21:27 45.11042 8.40667 11977 ft 315 kts 40°
2026-05-05 21:28 45.12725 8.42672 11891 ft 317 kts 40°
2026-05-05 21:28 45.14397 8.44668 11642 ft 318 kts 40°
2026-05-05 21:28 45.16086 8.46685 11396 ft 316 kts 40°
2026-05-05 21:28 45.17752 8.48676 11131 ft 310 kts 40°
2026-05-05 21:29 45.19389 8.50634 10871 ft 306 kts 40°
2026-05-05 21:29 45.21014 8.52580 10630 ft 304 kts 40°
2026-05-05 21:29 45.22730 8.54222 10343 ft 294 kts 19°
2026-05-05 21:29 45.24704 8.54632 10101 ft 283 kts 351°
2026-05-05 21:30 45.26517 8.53822 10048 ft 272 kts 327°
2026-05-05 21:30 45.27951 8.52158 10004 ft 268 kts 306°
2026-05-05 21:30 45.28866 8.49893 9997 ft 261 kts 285°
2026-05-05 21:30 45.29110 8.47384 9990 ft 255 kts 263°
2026-05-05 21:31 45.28680 8.44996 9991 ft 253 kts 242°
2026-05-05 21:31 45.27692 8.42909 9834 ft 257 kts 227°
2026-05-05 21:31 45.26306 8.41324 9532 ft 256 kts 204°
2026-05-05 21:31 45.24646 8.40476 9283 ft 252 kts 199°
2026-05-05 21:32 45.22983 8.39673 9020 ft 251 kts 199°
2026-05-05 21:32 45.21307 8.39218 8734 ft 249 kts 181°
2026-05-05 21:32 45.19586 8.39441 8494 ft 248 kts 171°
2026-05-05 21:32 45.17889 8.39896 8240 ft 248 kts 170°
2026-05-05 21:33 45.16198 8.40367 8072 ft 243 kts 170°
2026-05-05 21:33 45.14568 8.40811 8016 ft 240 kts 171°
2026-05-05 21:33 45.12912 8.41254 7785 ft 244 kts 171°
2026-05-05 21:33 45.11236 8.41708 7487 ft 242 kts 167°
2026-05-05 21:34 45.09745 8.42729 7184 ft 240 kts 141°
2026-05-05 21:34 45.08728 8.44544 6909 ft 242 kts 112°
2026-05-05 21:34 45.08516 8.46889 6633 ft 245 kts 82°
2026-05-05 21:34 45.09143 8.49115 6369 ft 247 kts 53°
2026-05-05 21:35 45.10448 8.50651 6092 ft 246 kts 24°
2026-05-05 21:35 45.12092 8.51160 6003 ft 242 kts 358°
2026-05-05 21:35 45.13796 8.51052 6014 ft 248 kts 356°
2026-05-05 21:35 45.15516 8.50931 5997 ft 251 kts 356°
2026-05-05 21:36 45.17224 8.50813 5975 ft 239 kts 356°
2026-05-05 21:36 45.18846 8.50702 5955 ft 227 kts 356°
2026-05-05 21:36 45.20420 8.50596 5993 ft 225 kts 356°
2026-05-05 21:36 45.21995 8.50493 6010 ft 225 kts 356°
2026-05-05 21:37 45.23565 8.50393 6036 ft 228 kts 356°
2026-05-05 21:37 45.25173 8.50289 6000 ft 232 kts 356°
2026-05-05 21:37 45.26764 8.50191 5990 ft 225 kts 357°
2026-05-05 21:37 45.28320 8.50096 5979 ft 222 kts 357°
2026-05-05 21:38 45.29849 8.50003 5988 ft 223 kts 357°
2026-05-05 21:38 45.31394 8.50066 5986 ft 222 kts 15°
2026-05-05 21:38 45.32675 8.51209 5988 ft 218 kts 54°
2026-05-05 21:38 45.33295 8.53161 6004 ft 218 kts 77°
2026-05-05 21:39 45.33612 8.55282 6001 ft 224 kts 81°
2026-05-05 21:39 45.33903 8.57474 6001 ft 225 kts 81°
2026-05-05 21:39 45.34194 8.59657 5988 ft 223 kts 81°
2026-05-05 21:39 45.34484 8.61812 5982 ft 220 kts 81°
2026-05-05 21:40 45.34556 8.63936 5969 ft 214 kts 107°
2026-05-05 21:40 45.33843 8.65726 6002 ft 213 kts 139°
2026-05-05 21:40 45.32564 8.66781 5997 ft 214 kts 165°
2026-05-05 21:40 45.31110 8.67241 6003 ft 213 kts 170°
2026-05-05 21:41 45.29641 8.67621 5995 ft 214 kts 171°
2026-05-05 21:41 45.28196 8.67998 5990 ft 213 kts 170°
2026-05-05 21:41 45.26737 8.68382 5990 ft 213 kts 171°
2026-05-05 21:41 45.25280 8.68766 5989 ft 212 kts 170°
2026-05-05 21:42 45.23829 8.69156 5985 ft 211 kts 170°
2026-05-05 21:42 45.22408 8.69542 5985 ft 211 kts 170°
2026-05-05 21:42 45.20964 8.69936 5986 ft 210 kts 170°
2026-05-05 21:42 45.19525 8.70329 5988 ft 210 kts 170°
2026-05-05 21:43 45.18104 8.70717 5973 ft 210 kts 170°
2026-05-05 21:43 45.16668 8.71112 5968 ft 210 kts 170°
2026-05-05 21:43 45.15228 8.71507 5968 ft 210 kts 170°
2026-05-05 21:43 45.13807 8.71897 5970 ft 210 kts 170°
2026-05-05 21:44 45.12365 8.72292 5972 ft 211 kts 170°
2026-05-05 21:44 45.10918 8.72689 5972 ft 212 kts 170°
2026-05-05 21:44 45.09466 8.73087 5972 ft 212 kts 170°
2026-05-05 21:44 45.08015 8.73483 5966 ft 213 kts 170°
2026-05-05 21:45 45.06575 8.73877 5969 ft 213 kts 170°
2026-05-05 21:45 45.05107 8.74277 5962 ft 213 kts 170°
2026-05-05 21:45 45.03742 8.75014 5957 ft 212 kts 142°
2026-05-05 21:45 45.02917 8.76684 5963 ft 214 kts 109°
2026-05-05 21:46 45.02789 8.78808 5972 ft 223 kts 85°
2026-05-05 21:46 45.03059 8.80999 5979 ft 227 kts 80°
2026-05-05 21:46 45.03376 8.83184 5965 ft 226 kts 81°
2026-05-05 21:46 45.03698 8.85341 5960 ft 225 kts 77°
2026-05-05 21:47 45.04488 8.87248 5970 ft 230 kts 42°
2026-05-05 21:47 45.05923 8.88231 5962 ft 232 kts
2026-05-05 21:47 45.07506 8.88099 5983 ft 231 kts 348°
2026-05-05 21:47 45.09094 8.87663 5978 ft 233 kts 346°
2026-05-05 21:48 45.10693 8.87204 5791 ft 234 kts 346°
2026-05-05 21:48 45.12296 8.86750 5528 ft 231 kts 346°
2026-05-05 21:48 45.13838 8.86311 5263 ft 226 kts 347°
2026-05-05 21:48 45.15376 8.85883 5013 ft 228 kts 348°
2026-05-05 21:49 45.16993 8.85437 4821 ft 241 kts 348°
2026-05-05 21:49 45.18649 8.84985 4574 ft 241 kts 348°
2026-05-05 21:49 45.20253 8.84548 4360 ft 235 kts 348°
2026-05-05 21:49 45.21870 8.84107 4119 ft 238 kts 348°
2026-05-05 21:50 45.23504 8.83662 4037 ft 238 kts 348°
2026-05-05 21:50 45.25146 8.83214 4022 ft 240 kts 349°
2026-05-05 21:50 45.26761 8.82773 3993 ft 235 kts 349°
2026-05-05 21:50 45.28354 8.82340 3982 ft 229 kts 349°
2026-05-05 21:51 45.29909 8.81917 3961 ft 230 kts 349°
2026-05-05 21:51 45.31473 8.81492 3984 ft 229 kts 349°
2026-05-05 21:51 45.33037 8.81066 3991 ft 228 kts 349°
2026-05-05 21:51 45.34601 8.80640 3996 ft 228 kts 349°
2026-05-05 21:52 45.37709 8.79821 3996 ft 228 kts 352°
2026-05-05 21:52 45.39260 8.79517 3976 ft 218 kts 352°
2026-05-05 21:52 45.40717 8.79241 3964 ft 204 kts 352°
2026-05-05 21:53 45.42107 8.78974 3976 ft 198 kts 352°
2026-05-05 21:53 45.43441 8.78714 4006 ft 193 kts 351°
2026-05-05 21:53 45.44743 8.78384 3983 ft 187 kts 349°
2026-05-05 21:53 45.46010 8.78035 3979 ft 184 kts 349°
2026-05-05 21:54 45.47272 8.77690 3995 ft 186 kts 349°
2026-05-05 21:54 45.48558 8.77336 3953 ft 190 kts 349°
2026-05-05 21:54 45.49852 8.76980 3678 ft 192 kts 349°
2026-05-05 21:54 45.51172 8.76615 3195 ft 192 kts 349°
2026-05-05 21:55 45.52433 8.76268 2947 ft 175 kts 350°
2026-05-05 21:55 45.53574 8.75954 2831 ft 160 kts 350°
2026-05-05 21:55 45.54634 8.75662 2505 ft 155 kts 351°
2026-05-05 21:55 45.55707 8.75368 1940 ft 158 kts 351°
2026-05-05 21:56 45.56719 8.75088 1731 ft 146 kts 351°
2026-05-05 21:56 45.57749 8.74805 1560 ft 156 kts 350°
2026-05-05 21:56 45.58777 8.74519 1313 ft 145 kts 349°
2026-05-05 21:56 45.59747 8.74252 1114 ft 141 kts 349°
2026-05-05 21:57 45.60709 8.73986 935 ft 134 kts 350°
2026-05-05 21:57 45.61566 8.73772 781 ft 122 kts 349°
2026-05-05 21:57 45.62380 8.73531 726 ft 117 kts 351°
2026-05-05 21:57 45.62920 8.73381 722 ft 60 kts 349°
2026-05-05 21:58 45.63223 8.73134 724 ft 37 kts 310°
2026-05-05 21:58 45.63347 8.72891 725 ft 26 kts 303°
2026-05-05 21:58 45.63372 8.72836 721 ft 0 kts 303°
2026-05-05 21:59 45.63373 8.72834 721 ft 3 kts 303°
2026-05-05 21:59 45.63408 8.72710 722 ft 17 kts 280°
2026-05-05 21:59 45.63399 8.72547 723 ft 17 kts 259°
2026-05-05 21:59 45.63376 8.72378 724 ft 19 kts 259°
2026-05-05 22:00 45.63350 8.72188 722 ft 20 kts 259°
2026-05-05 22:00 45.63318 8.72003 723 ft 17 kts 235°
2026-05-05 22:00 45.63178 8.71997 722 ft 32 kts 168°
2026-05-05 22:00 45.62938 8.72066 723 ft 36 kts 169°
2026-05-05 22:01 45.62691 8.72137 722 ft 36 kts 168°
2026-05-05 22:01 45.62443 8.72205 723 ft 36 kts 169°
2026-05-05 22:01 45.62199 8.72271 723 ft 36 kts 169°
2026-05-05 22:01 45.61953 8.72338 722 ft 36 kts 169°
2026-05-05 22:02 45.61706 8.72405 722 ft 36 kts 169°
2026-05-05 22:02 45.61503 8.72460 723 ft 20 kts 168°
2026-05-05 22:02 45.61401 8.72385 723 ft 19 kts 249°
2026-05-05 22:02 45.61387 8.72215 725 ft 14 kts 300°
2026-05-05 22:03 45.61472 8.72169 724 ft 11 kts 348°
2026-05-05 22:03 45.61548 8.72145 724 ft 9 kts 343°
2026-05-05 22:03 45.61571 8.72061 721 ft 10 kts 268°
2026-05-05 22:03 45.61563 8.71995 725 ft 0 kts 259°
2026-05-05 22:04 45.61562 8.71988 721 ft 0 kts 259°